Zurück zum Katalog

STARLINK-36976

AktivKommunikationVLEO
NORAD 68066·PAYLOAD·🇺🇸 United States

Gestartet Mar 2, 2026 von Vandenberg Space Force Base

Loading…

Nächste Überflüge (nächste 24 Stunden)

TLE

AktuellSource: CelesTrak SupGP

Epoche: Sep 15, 2026, 02:40 UTC

1 68066C 26041AC  26258.11159722 -.00037984  00000+0 -11221-2 0  2589
2 68066  53.1583 244.6757 0001355  86.3980 324.0275 15.34414750    14

Verfolge STARLINK-36976 in Echtzeit mit AllMySat

Download on the App Store